#timestamp,LO_Frequency,Hit,StdDev 
1600398015.8,286046999.8,N
1600398035.6,286047002.6,N
1600398055.5,286047002.6,N
1600398075.3,286047002.1,N
1600398095.2,286047001.9,N
1600398115.9,286047001.4,N
1600398135.7,286047001.3,N
1600398155.6,286047004.4,N
1600398175.4,286047004.1,N
1600398195.2,286047001.3,N
1600398215.1,286047004.0,N
1600398216.0,286047004.0,N
1600398235.8,286047004.0,N
1600398255.7,286047004.1,N
1600398275.5,286047003.8,N
1600398295.3,286047003.4,N
1600398315.2,286047005.9,N
1600398335.0,286047006.0,N
1600398335.9,286047006.0,N
1600398355.8,286047006.0,N
1600398375.6,286047005.7,N
1600398395.4,286047005.6,N
1600398415.3,286047005.5,N
1600398435.1,286047005.8,N
1600398455.8,286047005.6,N
1600398475.7,286047005.7,N
1600398495.5,286047005.7,Y
1600398515.4,286047002.6,P
1600398535.2,286047002.5,P
1600398555.0,286047002.5,P
1600398555.9,286047002.5,Y
1600398575.8,286046998.1,P
1600398595.6,286047000.9,N
1600398615.5,286047000.6,N
1600398635.3,286047000.9,N
1600398655.1,286047000.4,N
1600398675.9,286047000.3,N
1600398695.7,286047000.6,N
1600398715.5,286047000.1,N
1600398735.4,286047000.2,N
1600398755.2,286046999.9,N
1600398775.1,286046999.8,N
1600398776.0,286046999.8,N
1600398795.8,286047002.4,N
1600398815.6,286047002.4,N
1600398835.5,286046999.7,N
1600398855.3,286047002.3,N
1600398875.2,286047002.3,N
1600398895.9,286047002.2,N
1600398915.7,286047002.6,N
1600398935.6,286047001.9,N
1600398955.4,286047001.6,N
1600398975.2,286047002.1,N
1600398995.1,286047001.3,N
1600398996.0,286047001.3,N
1600399015.8,286047004.4,Y
1600399035.7,286047002.3,P
1600399055.5,286047002.1,P
1600399075.3,286047001.4,N
1600399095.2,286047004.3,Y
1600399115.0,286047000.1,P
1600399115.9,286047000.1,N
1600399135.8,286047002.3,N
1600399155.6,286046999.7,N
1600399175.4,286047002.2,N
1600399195.3,286047002.2,N
1600399215.1,286047002.2,N
1600399235.8,286047002.1,N
1600399255.7,286047001.5,N
1600399275.5,286047001.7,N
1600399295.4,286047002.0,N
1600399315.2,286047001.6,N
1600399335.0,286047001.4,N
1600399335.9,286047001.4,N
1600399355.8,286047004.4,Y
1600399375.6,286047002.8,P
1600399395.5,286047002.4,P
1600399415.3,286047002.0,P
1600399435.1,286047002.6,Y
1600399455.9,286047000.6,P
1600399475.7,286047000.9,N
1600399495.5,286047000.6,N
1600399515.4,286046999.8,N
1600399535.2,286047000.3,N
1600399555.1,286047000.2,N
1600399556.0,286047000.2,N
1600399575.8,286047000.2,N
1600399595.6,286047000.2,N
1600399615.5,286047000.2,N
1600399635.3,286046999.7,N
1600399655.2,286047002.4,Y
1600399675.9,286047002.8,P
1600399695.7,286046999.7,N
1600399715.6,286047002.3,N
1600399735.4,286047002.0,N
1600399755.2,286046999.7,N
1600399775.1,286047001.9,N
1600399776.0,286047001.9,N
1600399795.8,286047001.3,N
1600399815.7,286047001.6,N
1600399835.5,286047001.7,N
1600399855.3,286047004.0,Y
1600399875.2,286047002.1,P
1600399895.0,286047002.6,P
1600399895.9,286047002.6,P
1600399915.8,286047002.5,Y
1600399935.6,286046998.1,P
1600399955.4,286046998.1,N
1600399975.3,286046998.1,N
1600399995.1,286047000.8,N
1600400015.9,286047000.8,N
1600400035.7,286047000.3,N
1600400055.5,286047000.5,N
1600400075.4,286047000.3,N
1600400095.2,286047000.0,N
1600400115.0,286047000.2,N
1600400116.0,286047000.2,N
1600400135.8,286047000.1,N
1600400155.6,286047000.1,N
1600400175.5,286047000.0,N
1600400195.3,286047002.7,N
1600400215.1,286047002.3,N
1600400235.9,286047002.6,N
1600400255.7,286047002.6,N
1600400275.6,286047002.4,N
1600400295.4,286047000.1,N
1600400315.2,286047002.0,N
1600400335.1,286047002.0,N
1600400336.0,286047002.0,N
1600400355.8,286047002.1,N
1600400375.7,286047001.7,N
1600400395.5,286047001.3,N
1600400415.3,286047003.5,N
1600400435.2,286047003.9,N
1600400455.0,286047003.8,N
1600400455.9,286047003.8,N
1600400475.8,286047004.4,N
1600400495.6,286047003.8,N
1600400515.4,286047004.2,N
1600400535.3,286047003.5,N
1600400555.1,286047003.2,N
1600400575.8,286047003.1,N
1600400595.7,286047006.0,Y
1600400615.5,286047001.6,P
1600400635.4,286047004.3,P
1600400655.2,286047004.2,P
1600400675.0,286047004.2,Y
1600400675.9,286047004.2,P
1600400695.8,286047000.9,N
1600400715.6,286047000.9,N
1600400735.5,286047000.5,N
1600400755.3,286047000.5,N
1600400775.1,286047000.1,N
1600400795.9,286047002.4,N
1600400815.7,286047000.1,N
1600400835.5,286046999.7,N
1600400855.4,286047002.7,N
1600400875.2,286047002.7,N
1600400895.1,286047002.4,N
1600400896.0,286047002.4,N
1600400915.8,286047002.7,N
1600400935.6,286047002.6,N
1600400955.5,286047002.3,N
1600400975.3,286047001.9,N
1600400995.2,286047001.3,N
1600401015.9,286047001.6,N
1600401035.7,286047001.7,N
1600401055.6,286047004.1,Y
1600401075.4,286046999.8,P
1600401095.2,286046999.7,N
1600401115.1,286047002.8,N
1600401116.0,286047002.8,N
1600401135.8,286047001.9,N
1600401155.7,286047002.4,N
1600401175.5,286047002.6,N
1600401195.3,286047002.6,N
1600401215.2,286047002.2,N
1600401235.0,286047001.7,N
1600401235.9,286047001.7,N
1600401255.8,286047004.0,Y
1600401275.6,286047000.2,P
1600401295.4,286046999.9,N
1600401315.3,286047000.2,N
1600401335.1,286047002.5,Y
1600401355.8,286047000.2,P
1600401375.7,286047000.2,N
1600401395.5,286047002.7,P
1600401415.4,286047002.7,N
1600401435.2,286047002.3,N
1600401455.0,286047002.3,N
1600401455.9,286047002.3,N
1600401475.8,286047002.6,N
1600401495.6,286047002.1,N
1600401515.4,286047002.2,N
1600401535.3,286047002.0,N
1600401555.1,286047001.8,N
1600401575.9,286047002.0,N
1600401595.7,286047001.5,N
